Content
SEND FEEDBACK

Daily
Averages
Monthly
Summary
Canada

MONTREAL, QUEBEC


Home > North America > Canada > Quebec
Elevation: 118 feet     Latitude: 45 28N     Longitude: 073 45W

WEATHER
 
SELECT A DAY
Number of Records: 198,145;   Date Range: 1/1/95 - 7/28/14
 
SHARE

PRINT THIS DATA

[ ← Previous Day ]
WEATHER ALMANAC - JANUARY 28, 2013
[ Next Day → ]
[ °C ]   °F
Weather ElementAverageHighLow
Temperature16.1 °F21.2 °F (1:36 pm)6.8 °F (1:00 am)
Dewpoint5.2 °F17.6 °F (2:00 pm)-5 °F (1:00 am)
Humidity74.2 %93 % (2:00 pm)41 % (1:00 am)
Wind Speed9.8 mph17.3 mph (4:30 pm)
Wind Gust23 mph (9:00 pm)
Weather ElementAverage
Visibility6.3 mi
Wind DirectionWSW (263.1 °)

Weather ElementTotal
Precipitation---
Heating Degree Days51 (Base 65)
Averaged from 42 records on January 28, 2013
WEATHER CONDITIONS BREAKOUT
WIND DIRECTION BREAKOUT
WEATHER BY HOUR - JANUARY 28, 2013
[ °C ]   °F
Local TimeTemperatureDewpointHumidityBarometerVisibilityWind DirectionWind SpeedGust SpeedPrecipitationEventsConditions
1:00 AM8.0 °F-5.0 °F41 %30.47 in15.0 miSE (130°)2.3 mphScattered Clouds
1:00 AM6.8 °F-4.0 °F61 %30.47 in15.0 miSE (130°)3.5 mphPartly Cloudy
2:00 AM6.8 °F-4.0 °F61 %30.47 in15.0 miSouth (190°)2.3 mphScattered Clouds
3:00 AM10.4 °F-0.4 °F62 %30.45 in15.0 miSSE (160°)4.6 mphScattered Clouds
4:00 AM8.6 °F1.4 °F73 %30.42 in15.0 miESE (120°)3.5 mphMostly Cloudy
5:00 AM10.4 °F1.4 °F67 %30.41 in15.0 miSE (140°)4.6 mphMostly Cloudy
6:00 AM10.4 °F3.2 °F73 %30.40 in15.0 miESE (110°)5.8 mphMostly Cloudy
7:00 AM12.0 °F3.0 °F54 %30.38 in15.0 miESE (110°)5.8 mphOvercast
7:00 AM12.2 °F3.2 °F67 %30.38 in15.0 miESE (110°)5.8 mphOvercast
8:00 AM14.0 °F5.0 °F67 %30.37 in15.0 miEast (100°)5.8 mphOvercast
9:00 AM14.0 °F6.8 °F73 %30.33 in15.0 miESE (110°)8.1 mphOvercast
10:00 AM15.8 °F6.8 °F68 %30.30 in15.0 miEast (100°)8.1 mphOvercast
11:00 AM17.6 °F6.8 °F63 %30.27 in12.0 miEast (100°)8.1 mphOvercast
11:08 AM17.6 °F0.0 °F10.0 miEast (100°)8.1 mphSnowLight Snow
11:44 AM19.4 °F0.0 °F2.5 miEast (90°)6.9 mphSnowLight Snow
12:00 PM19.4 °F12.2 °F74 %30.22 in4.0 miEast (80°)9.2 mphSnowLight Snow
12:35 PM19.4 °F0.0 °F2.0 miEast (90°)8.1 mphSnowLight Snow
1:00 PM20.0 °F15.0 °F73 %30.17 in2.0 miEast (90°)6.9 mphSnowLight Snow
1:00 PM19.4 °F15.8 °F86 %30.17 in1.8 miEast (90°)6.9 mphSnowLight Snow
1:22 PM19.4 °F0.0 °F1.5 miEast (80°)9.2 mphSnowLight Snow
1:36 PM21.2 °F0.0 °F1.0 miEast (90°)9.2 mphSnowLight Snow
2:00 PM19.4 °F17.6 °F93 %30.13 in1.0 miEast (80°)9.2 mphSnowLight Snow
2:48 PM19.4 °F0.0 °F1.2 miENE (70°)10.4 mphSnowLight Snow
3:00 PM19.4 °F17.6 °F93 %30.09 in1.8 miEast (80°)10.4 mphSnowLight Snow
3:14 PM19.4 °F0.0 °F0.0 mi10.4 (2013°)0.00 inLight Snow60
3:35 PM21.2 °F0.0 °F1.5 miENE (60°)12.7 mphSnowLight Snow
3:48 PM21.2 °F0.0 °F0.0 mi11.5 (2013°)0.00 inLight Snow50
4:00 PM19.4 °F15.8 °F86 %30.07 in1.2 miNE (40°)15.0 mphSnowLight Snow
4:14 PM17.6 °F0.0 °F0.0 mi15.0 (2013°)0.00 inLight Snow40
4:30 PM17.6 °F0.0 °F1.0 miNE (40°)17.3 mphSnowLight Snow
5:00 PM17.6 °F14.0 °F86 %30.06 in1.0 miNE (40°)17.3 mphSnowLight Snow
5:14 PM17.6 °F0.0 °F2.0 miNE (40°)16.1 mphSnowLight Snow
5:21 PM17.6 °F0.0 °F3.0 miNE (40°)13.8 mphSnowLight Snow
6:00 PM17.6 °F12.2 °F79 %30.05 in5.0 miNNE (30°)15.0 mphSnowLight Snow
7:00 PM17.0 °F13.0 °F80 %30.04 in2.0 miNNE (30°)13.8 mphSnowLight Snow
7:00 PM17.6 °F14.0 °F86 %30.04 in2.0 miNNE (30°)13.8 mphSnowLight Snow
8:00 PM15.8 °F14.0 °F93 %30.04 in1.2 miNNE (20°)17.3 mphSnowLight Snow
8:13 PM15.8 °F0.0 °F0.0 mi16.1 (2013°)0.00 inLight Snow20
8:29 PM15.8 °F0.0 °F1.5 miNNE (20°)16.1 mphSnowLight Snow
9:00 PM15.8 °F12.2 °F86 %30.04 in3.0 miNNE (20°)15.0 mph23.0 mphSnowLight Snow
10:00 PM15.8 °F12.2 °F86 %30.04 in5.0 miNNE (20°)12.7 mphSnowLight Snow
11:00 PM15.8 °F8.6 °F73 %30.04 in15.0 miNNE (20°)13.8 mphSnowLow Drifting Snow
Hourly data recorded from CYUL, located miles away from Montreal, Quebec







STORIES FROM OUR PARTNERS